Location: Unspecified
(0.0000°N, 0.0000°E)
Time: 06:02:37

Vanguard 1 Rocket - Pass Details

Date: 16 December 2017
Orbit: 655 x 4222 km, 34.3° (Epoch: 19 March)

Event Time Altitude Azimuth Distance (km) Brightness Sun altitude
Exits shadow 04:11:28 10° 258° (WSW) 6,915 11.4 -23.8°
Maximum altitude 04:25:56 22° 215° (SW) 4,875 11.0 -20.5°
Drops below altitude 10° 04:36:07 10° 169° (S) 4,676 11.5 -18.2°
Sets 04:40:23 0° 153° (SSE) 5,132 12.1 -17.2°
